This demonstration page uses our WeatherBlox Daily Observations layout. Learn more.

Left ArrowRight Arrow

39.01783, -85.05884

Hourly Observations for August 8, 2020

Temp ( °F °C ) Dew Point ( °F °C ) Humidity (%) Winds ( mph kmh ) Pressure ( in mb ) Visibility ( mi km ) Precip ( " mm )
12:52 am 00:52 Clear 68 20 57 13.9 68 68 NNW 3 6 30.15 1021 10 16.0934 0 0
1:52 am 01:52 Clear 67 19.4 58 14.4 73 73 NNW 3 6 30.14 1021 10 16.0934 0 0
2:52 am 02:52 Clear 67 19.4 57 13.9 71 71 N 5 7 30.14 1021 10 16.0934 0 0
3:52 am 03:52 Mostly Clear 65 18.3 58 14.4 78 78 NNW 5 7 30.14 1021 10 16.0934 0 0
4:52 am 04:52 Mostly Clear 63 17.2 59 15 87 87 N 3 6 30.14 1021 10 16.0934 0 0
5:52 am 05:52 Mostly Clear 62 16.7 57 13.9 84 84 Calm 30.14 1021 10 16.0934 0 0
6:52 am 06:52 Partly Cloudy 62 16.7 58 14.4 86 86 N 3 6 30.16 1021 9 14.48406 0 0
7:52 am 07:52 Partly Cloudy 66 18.9 59 15 78 78 ENE 3 6 30.16 1021 10 16.0934 0 0
8:52 am 08:52 Mostly Sunny 70 21.1 60 15.6 71 71 E 6 9 30.16 1022 10 16.0934 0 0
9:52 am 09:52 Mostly Sunny 75 23.9 62 16.7 64 64 Calm 30.17 1022 10 16.0934 0 0
10:52 am 10:52 Sunny 78 25.6 61 16.1 56 56 NE 3 6 30.19 1022 10 16.0934 0 0
11:52 am 11:52 Partly Cloudy 78 25.6 59 15 52 52 SSE 3 6 30.19 1022 10 16.0934 0 0
12:52 pm 12:52 Partly Cloudy 81 27.2 60 15.6 49 49 Calm 30.18 1022 10 16.0934 0 0
1:52 pm 13:52 Partly Cloudy 82 27.8 60 15.6 47 47 NNW 6 9 30.16 1021 10 16.0934 0 0
2:52 pm 14:52 Partly Cloudy 83 28.3 60 15.6 46 46 VRB 3 6 30.15 1021 10 16.0934 0 0
3:52 pm 15:52 Mostly Sunny 82 27.8 59 15 46 46 Calm 30.13 1020 10 16.0934 0 0
4:52 pm 16:52 Mostly Sunny 83 28.3 59 15 44 44 W 8 13 30.12 1020 10 16.0934 0 0
5:52 pm 17:52 Mostly Sunny 83 28.3 57 13.9 41 41 W 7 11 30.12 1020 10 16.0934 0 0
6:52 pm 18:52 Partly Cloudy 82 27.8 60 15.6 47 47 WSW 6 9 30.12 1020 10 16.0934 0 0
7:52 pm 19:52 Partly Cloudy 80 26.7 61 16.1 52 52 W 5 7 30.13 1020 10 16.0934 0 0
8:52 pm 20:52 Mostly Clear 78 25.6 62 16.7 58 58 Calm 30.12 1020 10 16.0934 0 0
9:52 pm 21:52 Mostly Clear 72 22.2 61 16.1 68 68 SSW 3 6 30.14 1021 10 16.0934 0 0
10:52 pm 22:52 Clear 73 22.8 61 16.1 66 66 Calm 30.14 1021 10 16.0934 0 0
11:52 pm 23:52 Clear 70 21.1 62 16.7 76 76 S 3 6 30.13 1020 10 16.0934 0 0

Powered by AerisWeather